Wind_Speed
18 21 25 26 28 32 35 36 36 36 37 40 44 44 42 42 44 43 44 42 38 34
16 18 20 22 24 26 29 31 33 37 38 38 42 46 43 44 44 44 43 41 39 35
14 15 18 20 23 25 28 29 30 32 35 35 38 45 45 45 43 42 41 39 36 35
14 14 14 18 22 24 25 24 27 26 28 31 33 34 40 39 38 38 38 36 34 29
11 12 16 17 18 21 22 19 20 21 21 23 27 29 32 35 34 34 34 32 31 28
24 22 17 18 18 17 17 15 14 16 18 20 24 26 28 30 31 30 31 29 25 24
21 23 19 18 16 13 13 12 15 16 18 20 22 24 26 26 28 30 26 24 21 18
14 15 16 11 12 13 11 13 14 16 17 18 19 20 23 25 26 22 19 17 17 17
10 10 9 8 10 12 11 11 11 12 14 16 18 20 18 17 17 15 16 16 15 12
7 6 5 3 3 5 6 7 8 11 15 15 18 15 14 16 16 15 13 11 9 10
4 2 2 3 6 9 11 12 15 18 19 21 18 16 14 12 9 9 8 6 3 3
7 5 4 5 8 11 14 18 19 17 15 12 13 10 9 8 7 3 1 2 2 5
12 10 10 12 15 16 16 17 17 17 14 11 10 9 6 5 5 2 1 2 5 9
15 15 15 16 15 15 16 15 13 11 9 8 9 7 6 5 3 3 5 7 9 11
Wind_Direction
252 253 254 256 261 263 263 260 254 253 251 249 249 250 249 247 243 241 238 239 241 242
266 262 258 257 260 261 261 262 260 258 257 251 247 245 250 248 243 239 238 237 239 239
277 274 270 266 266 264 263 262 260 257 254 253 251 247 244 244 243 238 234 233 234 232
268 281 280 272 264 261 258 258 261 260 259 255 250 249 244 242 238 233 225 224 225 222
302 292 290 286 275 264 258 257 258 256 258 258 252 245 241 236 232 226 222 219 217 218
300 302 302 287 276 264 259 259 257 256 252 247 243 236 227 224 217 211 210 216 215 212
291 297 302 288 272 265 254 253 250 245 241 235 230 220 215 210 207 204 207 209 209 216
315 315 295 280 275 257 246 238 236 232 220 210 204 203 199 197 201 203 199 204 212 224
320 321 300 276 252 239 222 210 205 199 192 184 179 175 180 189 190 206 214 217 217 228
340 340 326 305 222 195 185 168 168 165 160 160 164 164 182 193 191 192 196 209 222 240
11 40 95 133 149 146 145 142 140 142 145 156 152 164 167 169 176 189 200 226 298 271
34 39 79 115 121 124 134 130 131 135 137 140 138 150 161 169 180 191 112 142 253 279
72 79 93 104 114 123 129 123 127 125 129 133 148 156 132 99 96 79 357 312 302 302
89 96 99 102 109 116 114 118 118 127 127 120 102 91 66 51 30 340 316 311 312 315
Height
1459 1459 1460 1461 1462 1462 1462 1465 1467 1469 1471 1474 1477 1481 1485 1487 1491 1494 1497 1501 1503 1506
1454 1454 1454 1454 1454 1454 1454 1455 1458 1460 1462 1465 1468 1471 1475 1478 1481 1485 1489 1492 1495 1498
1449 1448 1447 1447 1447 1448 1448 1447 1449 1451 1453 1455 1458 1462 1466 1468 1473 1477 1481 1484 1488 1490
1444 1443 1442 1441 1441 1441 1440 1440 1441 1443 1446 1448 1450 1453 1457 1461 1466 1469 1468 1474 1478 1485
1439 1438 1437 1435 1434 1434 1433 1434 1435 1437 1439 1442 1445 1446 1449 1454 1458 1462 1466 1468 1472 1477
1435 1433 1431 1430 1429 1429 1428 1430 1431 1432 1434 1436 1439 1442 1445 1449 1452 1457 1462 1466 1469 1473
1429 1428 1426 1426 1425 1426 1425 1426 1427 1428 1429 1432 1435 1438 1442 1445 1450 1457 1459 1463 1467 1471
1425 1422 1422 1422 1422 1424 1423 1424 1424 1425 1425 1428 1432 1437 1441 1444 1450 1454 1459 1464 1466 1469
1423 1422 1422 1421 1421 1422 1421 1422 1422 1424 1426 1429 1432 1438 1443 1448 1451 1456 1461 1462 1463 1465
1424 1423 1423 1422 1422 1423 1423 1422 1423 1426 1431 1434 1439 1437 1444 1450 1451 1454 1457 1460 1462 1463
1426 1425 1424 1425 1425 1424 1424 1425 1425 1430 1433 1440 1442 1443 1446 1449 1452 1455 1456 1458 1459 1462
1429 1429 1428 1428 1428 1428 1429 1428 1431 1435 1438 1439 1443 1445 1447 1450 1452 1454 1455 1455 1458 1460
1433 1433 1434 1434 1435 1436 1436 1436 1438 1439 1442 1444 1446 1448 1449 1451 1453 1455 1455 1455 1455 1456
1439 1440 1441 1441 1442 1442 1441 1442 1443 1445 1447 1449 1450 1451 1451 1451 1452 1454 1455 1454 1452 1451